Location: Middelsbur
(53.6609°N, 7.5020°E)
Time: 12:02:08
(UTC+00:00)

Cosmos 2154 Rocket - Pass Details

Date: 06 July 2020
Orbit: 967 x 995 km, 82.9° (Epoch: 07 August)

Event Time Altitude Azimuth Distance (km) Brightness Sun altitude
Exits shadow 21:49:47 12° 174° (S) 2,590 5.6 -10.5°
Maximum altitude 21:55:35 64° 95° (E) 1,070 4.1 -10.8°
Drops below altitude 10° 22:01:44 10° 15° (NNE) 2,731 7.2 -11.2°
Sets 22:04:17 0° 13° (NNE) 3,686 8.0 -11.3°
